Location: Kolin
(50.0330°N, 15.2000°E)
Time: 12:21:00
(UTC+01:00)

ISS - Pass Details

Date: 27 November 2019
Orbit: 411 x 421 km, 51.6° (Epoch: 15 December)

Event Time Altitude Azimuth Distance (km) Brightness Sun altitude
Rises 19:12:38 0° 270° (W) 2,360 1.3 -29.7°
Reaches altitude 10° 19:14:44 10° 273° (W) 1,499 0.0 -30.1°
Enters shadow 19:15:24 15° 275° (W) 1,237 -0.6 -30.2°
